Weather History for Ponca City, OK

Change the Weather History Date:

Thursday, January 31, 2013

  Actual Average Record
Temperature  
Mean Temperature 32 °F -  
Max Temperature 44 °F 53 °F 71 °F (2009)
Min Temperature 19 °F 30 °F 8 °F (1951)
Degree Days  
Heating Degree Days 32    
Moisture  
Dew Point 18 °F    
Average Humidity 63    
Maximum Humidity 84    
Minimum Humidity 50    
Precipitation  
Precipitation 0.00 in - - ()
Sea Level Pressure  
Sea Level Pressure 30.23 in    
Wind  
Wind Speed 6 mph (NNE)    
Max Wind Speed 24 mph    
Max Gust Speed 29 mph    
Visibility 10 miles    
Events      
Averages and records for this station are not official NWS values.
T = Trace of Precipitation, MM = Missing Value Source: NWS Daily Summary

Daily Weather History Graph

Daily Weather History Graph

Search for Another Location

Airport:

Trip Planner

Search our weather history database for the weather conditions in past years. The results will help you decide how hot, cold, wet, or windy it might be!

Date:

Astronomy

Jan. 31, 2013 Rise Set
Actual Time 7:30 AM CST 5:53 PM CST
Civil Twilight 7:03 AM CST 6:20 PM CST
Nautical Twilight 6:32 AM CST 6:51 PM CST
Astronomical Twilight 6:02 AM CST 7:22 PM CST
Moon 10:47 PM CST (1/31) 9:40 AM CST (1/31)
Length of Visible Light 11h 16m
Length of Day
10h 22m
Waning Gibbous, 79% of the Moon is Illuminated
Jan 31
Waning Gibbous
Feb 3
Last Quarter
Feb 10
New
Feb 17
First Quarter
Feb 25
Full

Hourly Weather History & Observations

Time (CST) Temp. Windchill Dew Point Humidity Pressure Visibility Wind Dir Wind Speed Gust Speed Precip Events Conditions
12:53 AM 25.0 °F - 19.0 °F 78% 30.05 in 10.0 mi Calm Calm - N/A   Clear
1:53 AM 28.9 °F 23.9 °F 21.0 °F 72% 30.03 in 10.0 mi South 4.6 mph - N/A   Clear
2:53 AM 28.0 °F 22.8 °F 21.0 °F 75% 30.03 in 10.0 mi SSW 4.6 mph - N/A   Clear
3:53 AM 28.9 °F 25.2 °F 21.0 °F 72% 30.01 in 10.0 mi SW 3.5 mph - N/A   Clear
4:53 AM 28.0 °F - 21.0 °F 75% 30.01 in 10.0 mi Calm Calm - N/A   Clear
5:53 AM 24.1 °F - 19.9 °F 84% 30.04 in 10.0 mi Calm Calm - N/A   Clear
6:53 AM 26.1 °F - 19.9 °F 78% 30.04 in 10.0 mi Calm Calm - N/A   Clear
7:53 AM 26.1 °F - 19.0 °F 75% 30.08 in 10.0 mi Calm Calm - N/A   Clear
8:53 AM 30.9 °F - 21.0 °F 67% 30.09 in 10.0 mi Calm Calm - N/A   Clear
9:53 AM 37.0 °F 33.3 °F 25.0 °F 62% 30.15 in 10.0 mi Variable 4.6 mph - N/A   Clear
10:53 AM 41.0 °F 35.8 °F 24.1 °F 51% 30.18 in 10.0 mi North 8.1 mph - N/A   Clear
11:53 AM 42.1 °F 34.2 °F 25.0 °F 51% 30.18 in 10.0 mi NNE 16.1 mph - N/A   Clear
12:53 PM 44.1 °F 35.7 °F 27.0 °F 51% 30.18 in 10.0 mi North 20.7 mph - N/A   Clear
2:53 PM 35.1 °F 23.0 °F 23.0 °F 61% 30.26 in 10.0 mi NNE 24.2 mph 28.8 mph N/A   Partly Cloudy
3:53 PM 34.0 °F 22.4 °F 18.0 °F 52% 30.30 in 10.0 mi North 20.7 mph - N/A   Clear
4:53 PM 30.0 °F 17.5 °F 14.0 °F 51% 30.35 in 10.0 mi NNE 19.6 mph - N/A   Clear
5:53 PM 28.0 °F 18.6 °F 14.0 °F 56% 30.38 in 10.0 mi NNE 10.4 mph - N/A   Clear
6:53 PM 27.0 °F 17.3 °F 12.0 °F 53% 30.43 in 10.0 mi North 10.4 mph - N/A   Clear
7:53 PM 24.1 °F 12.0 °F 10.0 °F 55% 30.47 in 10.0 mi North 13.8 mph - N/A   Clear
8:53 PM 23.0 °F 10.6 °F 7.0 °F 50% 30.49 in 10.0 mi NNE 13.8 mph - N/A   Scattered Clouds
9:53 PM 21.0 °F 12.4 °F 9.0 °F 60% 30.49 in 10.0 mi NE 6.9 mph - N/A   Clear
10:53 PM 21.0 °F 11.4 °F 9.0 °F 60% 30.48 in 10.0 mi NE 8.1 mph - N/A   Clear
11:53 PM 19.9 °F 9.3 °F 8.1 °F 60% 30.46 in 10.0 mi ENE 9.2 mph - N/A   Clear